RYR34DA LFOB-LICC

Flight info

Callsign RYR34DA
Flight time 2h 18m
Altitude 37000
Route OKASI DCT OKEKO DCT MOU DCT MADIV DCT MOKIP DCT TUFTA DCT KOGAS DCT MEDAM DCT NITAM DCT MOGBO DCT KONER DCT BAKRO DCT VELAD DCT BEKIV DCT ENEPA M871 LIBRO
Aircraft B738/M-SDE2E3FGHIRWXY/LB1

Departure

Time 2026-05-08 11:04
Airport Beauvais-Tillé airport (LFOB)

Arrival

Time 2026-05-08 13:22
Airport Catania-Fontanarossa Airport (LICC)
Time Latitude Longitude Altitude Speed Heading
2026-05-08 10:26 49.45985 2.11561 356 ft 0 kts 312°
2026-05-08 10:53 49.45983 2.11565 356 ft 2 kts 312°
2026-05-08 10:54 49.45973 2.11581 356 ft 2 kts 312°
2026-05-08 10:54 49.45963 2.11598 355 ft 2 kts 312°
2026-05-08 10:54 49.45953 2.11616 355 ft 2 kts 306°
2026-05-08 10:54 49.45948 2.11637 355 ft 2 kts 268°
2026-05-08 10:55 49.45950 2.11660 355 ft 2 kts 265°
2026-05-08 10:55 49.45951 2.11683 355 ft 2 kts 266°
2026-05-08 10:55 49.45952 2.11706 355 ft 2 kts 265°
2026-05-08 10:55 49.45952 2.11711 355 ft 0 kts 266°
2026-05-08 10:58 49.45952 2.11710 355 ft 0 kts 266°
2026-05-08 10:59 49.45947 2.11664 355 ft 8 kts 247°
2026-05-08 10:59 49.45891 2.11574 353 ft 13 kts 221°
2026-05-08 10:59 49.45818 2.11469 349 ft 15 kts 224°
2026-05-08 10:59 49.45734 2.11351 346 ft 16 kts 220°
2026-05-08 11:00 49.45700 2.11264 344 ft 8 kts 271°
2026-05-08 11:00 49.45722 2.11192 345 ft 6 kts 305°
2026-05-08 11:00 49.45742 2.11146 346 ft 4 kts 302°
2026-05-08 11:00 49.45765 2.11090 347 ft 8 kts 302°
2026-05-08 11:01 49.45788 2.11023 348 ft 5 kts 276°
2026-05-08 11:01 49.45775 2.10983 348 ft 4 kts 216°
2026-05-08 11:01 49.45760 2.10968 348 ft 0 kts 212°
2026-05-08 11:01 49.45760 2.10967 348 ft 0 kts 212°
2026-05-08 11:02 49.45755 2.10963 348 ft 4 kts 210°
2026-05-08 11:02 49.45660 2.10882 346 ft 7 kts 209°
2026-05-08 11:02 49.45628 2.10864 345 ft 3 kts 155°
2026-05-08 11:03 49.45597 2.10925 344 ft 18 kts 123°
2026-05-08 11:03 49.45363 2.11463 335 ft 99 kts 123°
2026-05-08 11:03 49.44844 2.12660 312 ft 166 kts 123°
2026-05-08 11:03 49.44188 2.14197 935 ft 175 kts 118°
2026-05-08 11:04 49.43823 2.15897 1814 ft 173 kts 94°
2026-05-08 11:04 49.43836 2.17733 2494 ft 174 kts 85°
2026-05-08 11:04 49.43961 2.19632 2917 ft 191 kts 84°
2026-05-08 11:04 49.44088 2.21756 3412 ft 206 kts 85°
2026-05-08 11:05 49.44204 2.23999 3952 ft 220 kts 85°
2026-05-08 11:05 49.44327 2.26450 4493 ft 237 kts 85°
2026-05-08 11:05 49.44456 2.29021 5092 ft 251 kts 85°
2026-05-08 11:05 49.44594 2.31770 5691 ft 264 kts 85°
2026-05-08 11:06 49.44700 2.34616 6381 ft 271 kts 90°
2026-05-08 11:06 49.44406 2.37435 7081 ft 276 kts 111°
2026-05-08 11:06 49.43534 2.40065 7839 ft 279 kts 120°
2026-05-08 11:06 49.42523 2.42589 8577 ft 282 kts 121°
2026-05-08 11:07 49.41465 2.45151 9327 ft 286 kts 122°
2026-05-08 11:07 49.40424 2.47776 10063 ft 290 kts 120°
2026-05-08 11:07 49.39433 2.50466 10626 ft 300 kts 119°
2026-05-08 11:07 49.38158 2.53091 10993 ft 316 kts 136°
2026-05-08 11:08 49.36389 2.55223 11413 ft 330 kts 145°
2026-05-08 11:08 49.34476 2.57248 11938 ft 340 kts 144°
2026-05-08 11:08 49.32543 2.59394 12604 ft 346 kts 143°
2026-05-08 11:08 49.30606 2.61599 13289 ft 350 kts 143°
2026-05-08 11:09 49.28657 2.63820 13967 ft 354 kts 144°
2026-05-08 11:09 49.26661 2.66079 14645 ft 358 kts 145°
2026-05-08 11:09 49.24667 2.68323 15300 ft 362 kts 145°
2026-05-08 11:09 49.22626 2.70605 15961 ft 365 kts 146°
2026-05-08 11:10 49.20578 2.72887 16617 ft 368 kts 146°
2026-05-08 11:10 49.18498 2.75200 17267 ft 372 kts 146°
2026-05-08 11:10 49.16418 2.77511 17899 ft 375 kts 146°
2026-05-08 11:10 49.14309 2.79850 18521 ft 378 kts 146°
2026-05-08 11:11 49.12161 2.82230 19135 ft 381 kts 146°
2026-05-08 11:11 49.10032 2.84587 19724 ft 384 kts 146°
2026-05-08 11:11 49.07859 2.86989 20309 ft 387 kts 146°
2026-05-08 11:11 49.05675 2.89401 20868 ft 390 kts 146°
2026-05-08 11:12 49.03471 2.91833 21406 ft 393 kts 146°
2026-05-08 11:12 49.01259 2.94270 21933 ft 396 kts 146°
2026-05-08 11:12 48.99031 2.96723 22451 ft 399 kts 146°
2026-05-08 11:12 48.96772 2.99208 22954 ft 402 kts 146°
2026-05-08 11:13 48.94510 3.01692 23439 ft 406 kts 147°
2026-05-08 11:13 48.92192 3.04166 23904 ft 408 kts 150°
2026-05-08 11:13 48.89661 3.06157 24378 ft 407 kts 160°
2026-05-08 11:13 48.86979 3.07406 24834 ft 407 kts 171°
2026-05-08 11:14 48.84186 3.07904 25278 ft 407 kts 181°
2026-05-08 11:14 48.81367 3.07628 25714 ft 407 kts 191°
2026-05-08 11:14 48.78619 3.06581 26145 ft 407 kts 201°
2026-05-08 11:14 48.76051 3.04808 26567 ft 409 kts 211°
2026-05-08 11:15 48.73739 3.02375 26985 ft 410 kts 220°
2026-05-08 11:15 48.71711 2.99297 27404 ft 412 kts 230°
2026-05-08 11:15 48.69999 2.95853 27816 ft 415 kts 235°
2026-05-08 11:15 48.68337 2.92235 28222 ft 417 kts 235°
2026-05-08 11:16 48.66625 2.88666 28618 ft 420 kts 233°
2026-05-08 11:16 48.64827 2.85236 29005 ft 422 kts 230°
2026-05-08 11:16 48.62892 2.81859 29392 ft 424 kts 228°
2026-05-08 11:16 48.60892 2.78603 29768 ft 426 kts 227°
2026-05-08 11:17 48.58829 2.75406 30155 ft 429 kts 226°
2026-05-08 11:17 48.56730 2.72269 30581 ft 429 kts 225°
2026-05-08 11:17 48.54540 2.69224 31167 ft 425 kts 221°
2026-05-08 11:17 48.52207 2.66511 31605 ft 425 kts 216°
2026-05-08 11:18 48.49692 2.64226 32027 ft 426 kts 209°
2026-05-08 11:18 48.46976 2.62360 32439 ft 427 kts 203°
2026-05-08 11:18 48.44173 2.60996 32830 ft 428 kts 197°
2026-05-08 11:18 48.41260 2.60114 33185 ft 430 kts 191°
2026-05-08 11:19 48.38284 2.59733 33506 ft 432 kts 184°
2026-05-08 11:19 48.35249 2.59866 33820 ft 435 kts 178°
2026-05-08 11:19 48.32274 2.60462 34118 ft 437 kts 173°
2026-05-08 11:19 48.29288 2.61556 34401 ft 440 kts 166°
2026-05-08 11:20 48.26441 2.63117 34666 ft 443 kts 160°
2026-05-08 11:20 48.23634 2.65128 34936 ft 445 kts 156°
2026-05-08 11:20 48.20904 2.67325 35198 ft 447 kts 154°
2026-05-08 11:20 48.18176 2.69599 35442 ft 447 kts 154°
2026-05-08 11:21 48.15460 2.71863 35683 ft 446 kts 154°
2026-05-08 11:21 48.12778 2.74066 35907 ft 446 kts 155°
2026-05-08 11:21 48.10024 2.76285 36130 ft 445 kts 155°
2026-05-08 11:21 48.07283 2.78435 36333 ft 444 kts 157°
2026-05-08 11:22 48.04524 2.80402 36527 ft 442 kts 159°
2026-05-08 11:22 48.01708 2.82249 36705 ft 441 kts 160°
2026-05-08 11:22 47.98904 2.84011 36873 ft 441 kts 161°
2026-05-08 11:22 47.96050 2.85776 37024 ft 441 kts 161°
2026-05-08 11:23 47.93221 2.87521 37068 ft 443 kts 161°
2026-05-08 11:23 47.87541 2.91041 37074 ft 443 kts 161°
2026-05-08 11:24 47.81848 2.94599 37073 ft 443 kts 160°
2026-05-08 11:24 47.76184 2.98153 37063 ft 443 kts 160°
2026-05-08 11:25 47.70521 3.01710 37053 ft 442 kts 160°
2026-05-08 11:25 47.64878 3.05250 37044 ft 441 kts 160°
2026-05-08 11:26 47.59215 3.08796 37040 ft 441 kts 160°
2026-05-08 11:26 47.53581 3.12315 37038 ft 442 kts 160°
2026-05-08 11:27 47.47936 3.15831 37037 ft 442 kts 160°
2026-05-08 11:27 47.42274 3.19351 37036 ft 442 kts 160°
2026-05-08 11:28 47.36635 3.22847 37034 ft 442 kts 160°
2026-05-08 11:28 47.30967 3.26353 37031 ft 442 kts 160°
2026-05-08 11:29 47.25319 3.29839 37029 ft 442 kts 160°
2026-05-08 11:29 47.19647 3.33331 37027 ft 442 kts 160°
2026-05-08 11:30 47.14000 3.36799 37026 ft 442 kts 160°
2026-05-08 11:30 47.08344 3.40266 37025 ft 442 kts 160°
2026-05-08 11:31 47.02670 3.43735 37025 ft 442 kts 160°
2026-05-08 11:31 46.96992 3.47199 37028 ft 443 kts 160°
2026-05-08 11:32 46.91311 3.50656 37028 ft 443 kts 160°
2026-05-08 11:32 46.85598 3.54125 37026 ft 443 kts 160°
2026-05-08 11:33 46.79916 3.57572 37024 ft 444 kts 160°
2026-05-08 11:33 46.74575 3.62052 37022 ft 451 kts 142°
2026-05-08 11:33 46.72345 3.65347 37023 ft 456 kts 131°
2026-05-08 11:34 46.70557 3.69125 37022 ft 459 kts 122°
2026-05-08 11:34 46.67991 3.77638 37018 ft 463 kts 109°
2026-05-08 11:35 46.66340 3.86680 37019 ft 466 kts 104°
2026-05-08 11:35 46.64882 3.95976 37020 ft 476 kts 104°
2026-05-08 11:36 46.63372 4.05405 37022 ft 480 kts 104°
2026-05-08 11:36 46.61811 4.14728 37024 ft 478 kts 105°
2026-05-08 11:37 46.60193 4.24114 37026 ft 478 kts 105°
2026-05-08 11:37 46.58565 4.33400 37028 ft 477 kts 105°
2026-05-08 11:38 46.56912 4.42747 37028 ft 477 kts 105°
2026-05-08 11:38 46.55262 4.52024 37025 ft 477 kts 105°
2026-05-08 11:39 46.53606 4.61288 37028 ft 476 kts 105°
2026-05-08 11:39 46.51936 4.70587 37040 ft 475 kts 106°
2026-05-08 11:40 46.50269 4.79819 37049 ft 475 kts 107°
2026-05-08 11:40 46.48587 4.89091 37040 ft 475 kts 107°
2026-05-08 11:41 46.46958 4.98031 37030 ft 474 kts 107°
2026-05-08 11:41 46.45264 5.07278 37024 ft 474 kts 107°
2026-05-08 11:42 46.43579 5.16437 37027 ft 473 kts 107°
2026-05-08 11:42 46.41881 5.25629 37033 ft 473 kts 107°
2026-05-08 11:43 46.40172 5.34765 37041 ft 472 kts 108°
2026-05-08 11:43 46.37729 5.43489 37049 ft 466 kts 124°
2026-05-08 11:44 46.33914 5.50964 37061 ft 462 kts 133°
2026-05-08 11:44 46.29738 5.57965 37072 ft 460 kts 134°
2026-05-08 11:45 46.25520 5.64878 37085 ft 460 kts 134°
2026-05-08 11:45 46.21286 5.71866 37102 ft 460 kts 135°
2026-05-08 11:46 46.17106 5.78816 37106 ft 460 kts 135°
2026-05-08 11:46 46.12953 5.85751 37084 ft 459 kts 134°
2026-05-08 11:47 46.08783 5.92718 37063 ft 459 kts 134°
2026-05-08 11:47 46.04628 5.99651 37045 ft 459 kts 134°
2026-05-08 11:48 46.00454 6.06603 37040 ft 459 kts 134°
2026-05-08 11:48 45.96305 6.13493 37043 ft 459 kts 134°
2026-05-08 11:49 45.92129 6.20413 37048 ft 459 kts 134°
2026-05-08 11:49 45.87949 6.27321 37055 ft 459 kts 134°
2026-05-08 11:50 45.83754 6.34225 37078 ft 459 kts 135°
2026-05-08 11:50 45.79297 6.40690 36903 ft 456 kts 143°
2026-05-08 11:50 45.76836 6.43513 36770 ft 452 kts 147°
2026-05-08 11:51 45.74287 6.46175 36745 ft 448 kts 148°
2026-05-08 11:51 45.71775 6.48687 36870 ft 446 kts 149°
2026-05-08 11:51 45.69206 6.51220 37039 ft 446 kts 149°
2026-05-08 11:51 45.66645 6.53739 37149 ft 449 kts 149°
2026-05-08 11:52 45.64081 6.56268 37159 ft 453 kts 149°
2026-05-08 11:52 45.58910 6.61411 37177 ft 452 kts 149°
2026-05-08 11:53 45.53766 6.66569 37258 ft 451 kts 149°
2026-05-08 11:53 45.51206 6.69141 37151 ft 456 kts 149°
2026-05-08 11:53 45.48626 6.71734 36954 ft 455 kts 149°
2026-05-08 11:53 45.46051 6.74324 36758 ft 452 kts 149°
2026-05-08 11:54 45.43491 6.76900 36557 ft 450 kts 149°
2026-05-08 11:54 45.40939 6.79465 36361 ft 448 kts 149°
2026-05-08 11:54 45.38399 6.82016 36323 ft 446 kts 149°
2026-05-08 11:55 45.33309 6.87110 36207 ft 453 kts 149°
2026-05-08 11:55 45.30731 6.89686 36063 ft 452 kts 149°
2026-05-08 11:55 45.28187 6.92245 35855 ft 451 kts 148°
2026-05-08 11:55 45.25677 6.95018 35606 ft 453 kts 144°
2026-05-08 11:56 45.23344 6.97942 35355 ft 455 kts 142°
2026-05-08 11:56 45.21052 7.01022 35090 ft 455 kts 140°
2026-05-08 11:56 45.18789 7.04169 34992 ft 449 kts 140°
2026-05-08 11:57 45.14371 7.10384 35100 ft 453 kts 140°
2026-05-08 11:57 45.10036 7.16929 35275 ft 458 kts 134°
2026-05-08 11:58 45.06238 7.24120 35567 ft 455 kts 130°
2026-05-08 11:58 45.04436 7.27779 35850 ft 453 kts 129°
2026-05-08 11:58 45.02669 7.31408 36117 ft 452 kts 129°
2026-05-08 11:59 44.99140 7.38681 36574 ft 449 kts 129°
2026-05-08 11:59 44.97267 7.42223 36786 ft 445 kts 134°
2026-05-08 11:59 44.95283 7.45477 36986 ft 441 kts 137°
2026-05-08 11:59 44.93195 7.48639 37090 ft 443 kts 138°
2026-05-08 12:00 44.88851 7.54952 37093 ft 453 kts 139°
2026-05-08 12:00 44.84420 7.61364 37067 ft 457 kts 138°
2026-05-08 12:01 44.80022 7.67788 37062 ft 457 kts 139°
2026-05-08 12:01 44.75625 7.74241 37086 ft 462 kts 139°
2026-05-08 12:02 44.71138 7.80828 37081 ft 469 kts 138°
2026-05-08 12:02 44.66615 7.87468 37075 ft 474 kts 138°
2026-05-08 12:03 44.62059 7.94155 37084 ft 472 kts 138°
2026-05-08 12:03 44.57538 8.00778 37098 ft 473 kts 138°
2026-05-08 12:04 44.52967 8.07453 37102 ft 474 kts 138°
2026-05-08 12:04 44.48410 8.14090 37104 ft 474 kts 138°
2026-05-08 12:05 44.43867 8.20688 37096 ft 473 kts 138°
2026-05-08 12:05 44.39302 8.27305 37087 ft 472 kts 138°
2026-05-08 12:06 44.34751 8.33884 37068 ft 472 kts 138°
2026-05-08 12:06 44.30192 8.40457 37053 ft 473 kts 138°
2026-05-08 12:07 44.25629 8.47022 37038 ft 473 kts 138°
2026-05-08 12:07 44.21047 8.53598 37030 ft 473 kts 138°
2026-05-08 12:08 44.16446 8.60187 37029 ft 473 kts 138°
2026-05-08 12:08 44.11873 8.66720 37031 ft 472 kts 139°
2026-05-08 12:09 44.07298 8.73237 37035 ft 471 kts 139°
2026-05-08 12:09 44.02741 8.79716 37039 ft 470 kts 139°
2026-05-08 12:10 43.98206 8.86147 37040 ft 469 kts 139°
2026-05-08 12:10 43.93648 8.92597 37040 ft 468 kts 139°
2026-05-08 12:11 43.89086 8.99035 37034 ft 472 kts 139°
2026-05-08 12:11 43.84482 9.05516 37027 ft 474 kts 139°
2026-05-08 12:12 43.79856 9.12018 37020 ft 472 kts 139°
2026-05-08 12:12 43.75273 9.18445 37013 ft 471 kts 139°
2026-05-08 12:13 43.70686 9.24861 37010 ft 470 kts 139°
2026-05-08 12:13 43.66084 9.31284 37006 ft 469 kts 139°
2026-05-08 12:14 43.61512 9.37649 36998 ft 469 kts 139°
2026-05-08 12:14 43.56910 9.44040 36991 ft 468 kts 139°
2026-05-08 12:15 43.52349 9.50361 36995 ft 467 kts 139°
2026-05-08 12:15 43.47693 9.56512 36998 ft 464 kts 143°
2026-05-08 12:16 43.42751 9.62144 36998 ft 462 kts 146°
2026-05-08 12:16 43.37709 9.67682 36997 ft 461 kts 146°
2026-05-08 12:17 43.32713 9.73191 36997 ft 462 kts 146°
2026-05-08 12:17 43.27723 9.78738 36996 ft 463 kts 146°
2026-05-08 12:18 43.22739 9.84308 36994 ft 464 kts 146°
2026-05-08 12:18 43.17643 9.89662 36990 ft 462 kts 151°
2026-05-08 12:19 43.12174 9.94257 36981 ft 460 kts 155°
2026-05-08 12:19 43.06625 9.98559 36974 ft 461 kts 156°
2026-05-08 12:20 43.01046 10.02868 36976 ft 463 kts 156°
2026-05-08 12:20 42.95423 10.07221 36983 ft 464 kts 156°
2026-05-08 12:21 42.89822 10.11566 36987 ft 465 kts 156°
2026-05-08 12:21 42.84178 10.15943 36987 ft 465 kts 156°
2026-05-08 12:22 42.78550 10.20300 36993 ft 468 kts 156°
2026-05-08 12:22 42.72884 10.24680 36999 ft 470 kts 156°
2026-05-08 12:23 42.67201 10.29065 37003 ft 472 kts 156°
2026-05-08 12:23 42.61500 10.33454 37008 ft 474 kts 156°
2026-05-08 12:24 42.55748 10.37874 37011 ft 474 kts 156°
2026-05-08 12:24 42.50006 10.42276 37012 ft 475 kts 156°
2026-05-08 12:25 42.44250 10.46680 37008 ft 476 kts 156°
2026-05-08 12:25 42.38457 10.51101 37003 ft 477 kts 156°
2026-05-08 12:26 42.32689 10.55495 36999 ft 478 kts 156°
2026-05-08 12:26 42.26882 10.59909 36997 ft 478 kts 156°
2026-05-08 12:27 42.21131 10.64271 37002 ft 478 kts 156°
2026-05-08 12:27 42.15344 10.68652 37005 ft 477 kts 157°
2026-05-08 12:28 42.09547 10.73029 37000 ft 477 kts 157°
2026-05-08 12:28 42.03744 10.77401 36993 ft 477 kts 157°
2026-05-08 12:29 41.97960 10.81725 36983 ft 476 kts 157°
2026-05-08 12:29 41.92187 10.86017 36972 ft 477 kts 157°
2026-05-08 12:30 41.86345 10.90347 36967 ft 481 kts 157°
2026-05-08 12:30 41.80482 10.94686 36966 ft 483 kts 157°
2026-05-08 12:31 41.74588 10.99047 36965 ft 481 kts 157°
2026-05-08 12:31 41.68757 11.03354 36965 ft 481 kts 157°
2026-05-08 12:32 41.62882 11.07682 36967 ft 481 kts 157°
2026-05-08 12:32 41.57022 11.11989 36969 ft 481 kts 157°
2026-05-08 12:33 41.51186 11.16270 36964 ft 480 kts 157°
2026-05-08 12:33 41.45352 11.20540 36960 ft 480 kts 157°
2026-05-08 12:34 41.39476 11.24832 36964 ft 480 kts 157°
2026-05-08 12:34 41.33633 11.29091 36969 ft 480 kts 157°
2026-05-08 12:35 41.27781 11.33347 36978 ft 481 kts 157°
2026-05-08 12:35 41.21886 11.37626 36986 ft 481 kts 157°
2026-05-08 12:36 41.16009 11.41884 36987 ft 481 kts 157°
2026-05-08 12:36 41.10148 11.46121 36987 ft 481 kts 157°
2026-05-08 12:37 41.04276 11.50358 36986 ft 481 kts 157°
2026-05-08 12:37 40.98393 11.54593 36986 ft 482 kts 157°
2026-05-08 12:38 40.92520 11.58812 36986 ft 483 kts 157°
2026-05-08 12:38 40.86588 11.63064 36987 ft 484 kts 157°
2026-05-08 12:39 40.80661 11.67305 36988 ft 483 kts 158°
2026-05-08 12:39 40.74778 11.71506 36992 ft 484 kts 158°
2026-05-08 12:40 40.68834 11.75742 36999 ft 486 kts 158°
2026-05-08 12:40 40.62881 11.79975 37005 ft 487 kts 158°
2026-05-08 12:41 40.56929 11.84199 37006 ft 487 kts 158°
2026-05-08 12:41 40.50975 11.88416 37004 ft 488 kts 158°
2026-05-08 12:42 40.44967 11.92663 37001 ft 489 kts 158°
2026-05-08 12:42 40.38996 11.96874 36998 ft 490 kts 158°
2026-05-08 12:43 40.32973 12.01114 36998 ft 491 kts 158°
2026-05-08 12:43 40.26957 12.05341 36997 ft 491 kts 158°
2026-05-08 12:44 40.20926 12.09568 36998 ft 492 kts 158°
2026-05-08 12:44 40.14906 12.13780 36998 ft 492 kts 158°
2026-05-08 12:45 40.08886 12.17984 36993 ft 492 kts 158°
2026-05-08 12:45 40.02828 12.22206 36987 ft 492 kts 158°
2026-05-08 12:46 39.96806 12.26393 36987 ft 492 kts 158°
2026-05-08 12:46 39.90749 12.30596 36987 ft 493 kts 158°
2026-05-08 12:47 39.84681 12.34798 36984 ft 492 kts 158°
2026-05-08 12:47 39.78644 12.38972 36981 ft 492 kts 158°
2026-05-08 12:48 39.72622 12.43125 36981 ft 493 kts 158°
2026-05-08 12:48 39.66568 12.47293 36982 ft 493 kts 158°
2026-05-08 12:49 39.60491 12.51468 36983 ft 493 kts 158°
2026-05-08 12:49 39.54446 12.55612 36984 ft 493 kts 158°
2026-05-08 12:50 39.48401 12.59750 36983 ft 492 kts 159°
2026-05-08 12:50 39.42383 12.63860 36981 ft 492 kts 159°
2026-05-08 12:51 39.33303 12.70045 36981 ft 491 kts 159°
2026-05-08 12:52 39.27241 12.74164 36980 ft 491 kts 159°
2026-05-08 12:52 39.18171 12.80312 36978 ft 491 kts 159°
2026-05-08 12:53 39.12127 12.84399 36978 ft 491 kts 159°
2026-05-08 12:53 39.06073 12.88484 36979 ft 491 kts 159°
2026-05-08 12:54 39.00045 12.92545 36979 ft 491 kts 159°
2026-05-08 12:54 38.93987 12.96617 36980 ft 491 kts 159°
2026-05-08 12:55 38.87964 13.00659 36980 ft 490 kts 159°
2026-05-08 12:55 38.81939 13.04695 36980 ft 489 kts 159°
2026-05-08 12:56 38.78936 13.06708 36964 ft 478 kts 159°
2026-05-08 12:56 38.76035 13.08657 36721 ft 471 kts 159°
2026-05-08 12:56 38.73126 13.10606 36312 ft 468 kts 160°
2026-05-08 12:56 38.70248 13.12525 35830 ft 467 kts 160°
2026-05-08 12:57 38.67408 13.14416 35366 ft 465 kts 160°
2026-05-08 12:57 38.64546 13.16318 34878 ft 463 kts 160°
2026-05-08 12:57 38.61688 13.18216 34374 ft 462 kts 160°
2026-05-08 12:57 38.58839 13.20106 33824 ft 459 kts 160°
2026-05-08 12:58 38.56058 13.21953 33331 ft 455 kts 160°
2026-05-08 12:58 38.53225 13.23834 32842 ft 451 kts 160°
2026-05-08 12:58 38.50468 13.25664 32360 ft 446 kts 160°
2026-05-08 12:58 38.47760 13.27459 31873 ft 442 kts 160°
2026-05-08 12:59 38.45021 13.29273 31394 ft 437 kts 160°
2026-05-08 12:59 38.42343 13.31046 30927 ft 431 kts 160°
2026-05-08 12:59 38.39705 13.32790 30470 ft 426 kts 160°
2026-05-08 12:59 38.37077 13.34525 30019 ft 422 kts 160°
2026-05-08 13:00 38.34488 13.36232 29562 ft 418 kts 160°
2026-05-08 13:00 38.31941 13.37908 29117 ft 415 kts 160°
2026-05-08 13:00 38.29395 13.39582 28651 ft 412 kts 161°
2026-05-08 13:00 38.26845 13.41256 28177 ft 409 kts 161°
2026-05-08 13:01 38.24335 13.42905 27724 ft 406 kts 161°
2026-05-08 13:01 38.21833 13.44548 27274 ft 402 kts 161°
2026-05-08 13:01 38.19324 13.46194 26830 ft 399 kts 161°
2026-05-08 13:01 38.16885 13.47793 26388 ft 396 kts 161°
2026-05-08 13:02 38.14438 13.49396 25941 ft 392 kts 161°
2026-05-08 13:02 38.12026 13.50974 25498 ft 389 kts 161°
2026-05-08 13:02 38.09634 13.52539 25057 ft 386 kts 161°
2026-05-08 13:02 38.07262 13.54089 24616 ft 383 kts 161°
2026-05-08 13:03 38.04904 13.55630 24174 ft 380 kts 161°
2026-05-08 13:03 38.02552 13.57165 23740 ft 377 kts 161°
2026-05-08 13:03 38.00234 13.58678 23312 ft 374 kts 161°
2026-05-08 13:03 37.97940 13.60173 22887 ft 371 kts 161°
2026-05-08 13:04 37.95669 13.61652 22468 ft 367 kts 161°
2026-05-08 13:04 37.93390 13.63135 22048 ft 364 kts 161°
2026-05-08 13:04 37.91175 13.64628 21637 ft 364 kts 157°
2026-05-08 13:04 37.89082 13.66480 21219 ft 371 kts 145°
2026-05-08 13:05 37.87369 13.68935 20797 ft 379 kts 129°
2026-05-08 13:05 37.86115 13.71871 20375 ft 381 kts 118°
2026-05-08 13:05 37.85070 13.74962 19932 ft 381 kts 116°
2026-05-08 13:05 37.84089 13.78055 19489 ft 380 kts 115°
2026-05-08 13:06 37.83127 13.81165 19044 ft 379 kts 115°
2026-05-08 13:06 37.82188 13.84223 18603 ft 378 kts 115°
2026-05-08 13:06 37.81245 13.87300 18160 ft 376 kts 115°
2026-05-08 13:06 37.80294 13.90389 17719 ft 375 kts 115°
2026-05-08 13:07 37.79353 13.93435 17290 ft 374 kts 115°
2026-05-08 13:07 37.78403 13.96492 16858 ft 372 kts 115°
2026-05-08 13:07 37.77459 13.99521 16431 ft 371 kts 115°
2026-05-08 13:07 37.76506 14.02534 16001 ft 370 kts 116°
2026-05-08 13:08 37.75544 14.05510 15587 ft 368 kts 116°
2026-05-08 13:08 37.74574 14.08486 15175 ft 366 kts 116°
2026-05-08 13:08 37.73603 14.11452 14764 ft 364 kts 116°
2026-05-08 13:08 37.72638 14.14399 14333 ft 362 kts 116°
2026-05-08 13:09 37.71687 14.17312 13935 ft 356 kts 117°
2026-05-08 13:09 37.70759 14.20159 13539 ft 350 kts 117°
2026-05-08 13:09 37.69842 14.22972 13141 ft 344 kts 117°
2026-05-08 13:09 37.68937 14.25748 12746 ft 338 kts 117°
2026-05-08 13:10 37.68051 14.28457 12368 ft 334 kts 117°
2026-05-08 13:10 37.67168 14.31149 11941 ft 335 kts 117°
2026-05-08 13:10 37.66274 14.33869 11533 ft 334 kts 117°
2026-05-08 13:10 37.65382 14.36587 11109 ft 333 kts 117°
2026-05-08 13:11 37.64509 14.39251 10721 ft 327 kts 117°
2026-05-08 13:11 37.63654 14.41863 10330 ft 321 kts 117°
2026-05-08 13:11 37.62808 14.44464 9951 ft 319 kts 116°
2026-05-08 13:11 37.62203 14.47135 9715 ft 317 kts 102°
2026-05-08 13:12 37.62120 14.49917 9292 ft 321 kts 88°
2026-05-08 13:12 37.62343 14.52723 8886 ft 321 kts 83°
2026-05-08 13:12 37.62629 14.55451 8506 ft 313 kts 83°
2026-05-08 13:12 37.62844 14.58148 8216 ft 300 kts 90°
2026-05-08 13:13 37.62491 14.60620 8080 ft 279 kts 119°
2026-05-08 13:13 37.61329 14.62424 7923 ft 259 kts 145°
2026-05-08 13:13 37.59755 14.63384 7581 ft 249 kts 169°
2026-05-08 13:13 37.58061 14.63690 7304 ft 246 kts 176°
2026-05-08 13:14 37.56343 14.63889 6993 ft 249 kts 176°
2026-05-08 13:14 37.54620 14.64127 6713 ft 247 kts 175°
2026-05-08 13:14 37.52921 14.64399 6475 ft 243 kts 176°
2026-05-08 13:14 37.51282 14.64677 6269 ft 238 kts 175°
2026-05-08 13:15 37.49636 14.64959 5976 ft 237 kts 175°
2026-05-08 13:15 37.47994 14.65238 5685 ft 237 kts 176°
2026-05-08 13:15 37.46373 14.65529 5398 ft 236 kts 173°
2026-05-08 13:15 37.44811 14.66169 5123 ft 237 kts 152°
2026-05-08 13:16 37.43731 14.67670 4972 ft 232 kts 116°
2026-05-08 13:16 37.43458 14.69598 4862 ft 221 kts 89°
2026-05-08 13:16 37.43607 14.71462 4759 ft 209 kts 83°
2026-05-08 13:16 37.43791 14.73223 4657 ft 199 kts 83°
2026-05-08 13:17 37.43948 14.74946 4538 ft 198 kts 84°
2026-05-08 13:17 37.44099 14.76676 4438 ft 196 kts 84°
2026-05-08 13:17 37.44248 14.78388 4326 ft 199 kts 84°
2026-05-08 13:17 37.44399 14.80118 3989 ft 203 kts 84°
2026-05-08 13:18 37.44548 14.81876 3714 ft 201 kts 84°
2026-05-08 13:18 37.44701 14.83615 3438 ft 200 kts 83°
2026-05-08 13:18 37.44856 14.85341 3168 ft 200 kts 84°
2026-05-08 13:18 37.45005 14.87092 2903 ft 198 kts 84°
2026-05-08 13:19 37.45152 14.88809 2644 ft 197 kts 83°
2026-05-08 13:19 37.45298 14.90503 2388 ft 195 kts 83°
2026-05-08 13:19 37.45445 14.92206 2124 ft 195 kts 83°
2026-05-08 13:19 37.45589 14.93889 1860 ft 193 kts 83°
2026-05-08 13:20 37.45731 14.95534 1625 ft 183 kts 83°
2026-05-08 13:20 37.45863 14.97079 1394 ft 169 kts 83°
2026-05-08 13:20 37.45986 14.98524 1121 ft 162 kts 83°
2026-05-08 13:20 37.46105 14.99915 935 ft 160 kts 83°
2026-05-08 13:21 37.46224 15.01312 720 ft 159 kts 83°
2026-05-08 13:21 37.46339 15.02671 513 ft 157 kts 82°
2026-05-08 13:21 37.46456 15.04038 308 ft 156 kts 82°
2026-05-08 13:21 37.46573 15.05392 96 ft 156 kts 82°
2026-05-08 13:22 37.46679 15.06636 35 ft 115 kts 84°
2026-05-08 13:22 37.46740 15.07349 37 ft 53 kts 83°
2026-05-08 13:22 37.46798 15.07661 37 ft 24 kts 63°
2026-05-08 13:22 37.46869 15.07795 38 ft 11 kts 52°
2026-05-08 13:23 37.46932 15.07789 38 ft 9 kts 302°
2026-05-08 13:23 37.46934 15.07712 40 ft 9 kts 265°
2026-05-08 13:23 37.46926 15.07605 40 ft 14 kts 264°
2026-05-08 13:23 37.46912 15.07454 39 ft 20 kts 264°
2026-05-08 13:24 37.46896 15.07261 38 ft 22 kts 264°
2026-05-08 13:24 37.46881 15.07090 38 ft 16 kts 264°
2026-05-08 13:24 37.46870 15.06960 38 ft 14 kts 264°
2026-05-08 13:24 37.46862 15.06860 36 ft 11 kts 263°
2026-05-08 13:25 37.46865 15.06778 36 ft 7 kts 322°
2026-05-08 13:25 37.46911 15.06766 37 ft 5 kts 354°
2026-05-08 13:25 37.46927 15.06764 37 ft 0 kts 354°